Powrót do katalogu

COSMOS 2251 DEB

AktywnyLEO
NORAD 34572·DEBRIS·🇷🇺 Russia

Wystrzelony Jun 16, 1993 z Plesetsk Cosmodrome

Loading…

Następne Przeloty (najbliższe 24 godziny)

TLE

ŚwieżeSource: Space-Track

Epoka: Sep 14, 2026, 22:11 UTC

1 34572U 93036VJ  26257.92461550  .00004241  00000-0  98699-3 0  9991
2 34572  74.0085 314.0408 0064844 319.4077 218.5119 14.53897870913871

Śledź COSMOS 2251 DEB w czasie rzeczywistym z AllMySat

Download on the App Store